CW9533 Torre Faro Messina IT current weather conditions

sailwx.info

Wind from 047 at 1 knots gusting 4

Air temperature 16.7° C
Dewpoint 12.2° C

Last reported at 2015-Mar-04 10:50 UTC.
Time now 2015-Mar-04 11:19 UTC

Location: N 38°16' E 015°39'.
View on Google Maps.

See reports from other nearby stations

  
Tides and Currents Weather Stations Pressure Air Temp Water Temp Dewpoint Dewpoint Depression Visibility Wind Speed Wind Dir Waves Ship Positions
date/time (UTC)wind fromknots sea level pressurealtimeterstation pressurevisibilityair tempwater tempwave heightnotes
2015-Mar-04 10:50 047 1 gusting 4 16.7
2015-Mar-04 10:35 047 0 gusting 4 16.7
2015-Mar-04 10:20 045 1 gusting 6 17.2
2015-Mar-04 10:05 044 2 gusting 6 17.2
2015-Mar-04 09:50 042 17.2
2015-Mar-04 09:35 042 1 gusting 7 17.2
2015-Mar-04 09:20 039 0 gusting 6 18.3
2015-Mar-04 09:05 039 16.7
2015-Mar-04 08:50 039 16.7
2015-Mar-04 08:35 039 15.6
2015-Mar-04 08:20 039 15.0
2015-Mar-04 08:05 039 1 gusting 6 14.4
2015-Mar-04 07:50 039 3 gusting 6 14.4
2015-Mar-04 07:35 039 1 gusting 6 15.0
2015-Mar-04 07:20 039 1 gusting 4 14.4
2015-Mar-04 07:05 039 0 gusting 6 13.9
2015-Mar-04 06:50
2015-Mar-04 06:35
2015-Mar-04 06:19
2015-Mar-04 06:04
2015-Mar-04 05:49
2015-Mar-04 05:34
2015-Mar-04 05:19 044 4 gusting 7 12.8
2015-Mar-04 05:04 043 4 gusting 6 12.8
2015-Mar-04 04:49 043 3 gusting 6 13.3
2015-Mar-04 04:34 042 3 gusting 7 13.3
2015-Mar-04 04:19 042 4 gusting 7 13.3
2015-Mar-04 04:04 041 4 gusting 8 13.9
2015-Mar-04 03:49 038 4 gusting 6 13.9
2015-Mar-04 03:34 038 4 gusting 8 13.9
2015-Mar-04 03:19 046 5 gusting 7 13.9
2015-Mar-04 03:04 046 5 gusting 8 13.9
2015-Mar-04 02:49 042 6 gusting 11 13.3
2015-Mar-04 02:34 050 4 gusting 10 13.9
2015-Mar-04 02:19 043 4 gusting 10 13.9
2015-Mar-04 02:04 049 6 gusting 10 13.9
2015-Mar-04 01:49 055 5 gusting 8 13.9
2015-Mar-04 01:34 055 5 gusting 9 13.9
2015-Mar-04 01:19 057 5 gusting 11 14.4
2015-Mar-04 01:04 056 6 gusting 10 14.4
2015-Mar-04 00:49 061 4 gusting 10 14.4
2015-Mar-04 00:34 067 6 gusting 11 14.4
2015-Mar-04 00:19 055 4 gusting 8 13.9
2015-Mar-04 00:04 054 5 gusting 8 13.9
2015-Mar-03 23:49 052 3 gusting 7 13.9
2015-Mar-03 23:34 045 4 gusting 6 13.9
2015-Mar-03 23:19 045 4 gusting 7 14.4
2015-Mar-03 23:04 050 5 gusting 9 14.4
2015-Mar-03 22:49 054 6 gusting 10 14.4
2015-Mar-03 22:34 062 6 gusting 10 14.4
2015-Mar-03 22:19 060 6 gusting 12 14.4
2015-Mar-03 22:04 065 5 gusting 9 13.9
2015-Mar-03 21:49 060 6 gusting 11 14.4
2015-Mar-03 21:34 068 5 gusting 10 14.4
2015-Mar-03 21:19 072 6 gusting 12 14.4
2015-Mar-03 21:04 067 7 gusting 11 14.4
2015-Mar-03 20:49 066 5 gusting 12 14.4
2015-Mar-03 20:33 079 6 gusting 14 14.4
2015-Mar-03 20:18 070 6 gusting 12 14.4
2015-Mar-03 20:03 078 6 gusting 10 14.4
2015-Mar-03 19:48 069 7 gusting 14 14.4
2015-Mar-03 19:33 071 8 gusting 13 14.4
2015-Mar-03 19:18 076 9 gusting 15 14.4
2015-Mar-03 19:03 093 7 gusting 14 14.4
2015-Mar-03 18:48 061 9 gusting 15 14.4
2015-Mar-03 18:33 086 9 gusting 16 15.0
2015-Mar-03 18:18 073 6 gusting 14 15.0
2015-Mar-03 18:03 046 8 gusting 16 15.0
2015-Mar-03 17:48 078 6 gusting 15 15.0
2015-Mar-03 17:33 059 6 gusting 15 15.0
2015-Mar-03 17:18 066 6 gusting 15 15.6
2015-Mar-03 17:03 050 7 gusting 16 15.6
2015-Mar-03 16:48 038 5 gusting 13 15.6
2015-Mar-03 16:33 026 6 gusting 10 15.6
2015-Mar-03 16:18 059 6 gusting 14 16.1
2015-Mar-03 16:03 048 6 gusting 10 16.1
2015-Mar-03 15:48 051 5 gusting 10 16.7
2015-Mar-03 15:33 023 6 gusting 10 17.2
2015-Mar-03 15:18 355 0 gusting 11 17.2
2015-Mar-03 15:03 028 3 gusting 13 17.2
2015-Mar-03 14:48 016 3 gusting 12 17.2
2015-Mar-03 14:33 017 4 gusting 10 17.2
2015-Mar-03 14:18 015 2 gusting 9 17.2
2015-Mar-03 14:03 005 3 gusting 10 17.2
2015-Mar-03 13:48 036 7 gusting 13 16.7
2015-Mar-03 13:33 028 6 gusting 12 16.7
2015-Mar-03 13:18 027 4 gusting 10 16.7
2015-Mar-03 13:03 011 5 gusting 13 16.7
2015-Mar-03 12:48 319 6 gusting 12 17.2
2015-Mar-03 12:33 340 6 gusting 13 16.7
2015-Mar-03 12:18 015 8 gusting 18 16.7
2015-Mar-03 12:03 025 7 gusting 17 16.7
2015-Mar-03 11:48 017 7 gusting 14 16.7
2015-Mar-03 11:33 355 6 gusting 13 16.7
2015-Mar-03 11:18 034 8 gusting 15 16.7
2015-Mar-03 10:48 049 11 gusting 18 16.7
2015-Mar-03 10:33 017 11 gusting 16 16.7
2015-Mar-03 10:18 017 6 gusting 13 16.1
2015-Mar-03 10:03 044 6 gusting 14 16.1
2015-Mar-03 09:48 024 5 gusting 14 16.1
2015-Mar-03 09:33 022 8 gusting 15 16.1
2015-Mar-03 09:18 048 7 gusting 15 16.1
2015-Mar-03 09:03 028 6 gusting 11 16.1
2015-Mar-03 08:48 036 4 gusting 12 16.1
2015-Mar-03 08:33 331 8 gusting 17 16.7
2015-Mar-03 08:18 304 5 gusting 14 16.1
2015-Mar-03 08:03 355 16.1
2015-Mar-03 07:47 313 1 gusting 6 16.1
2015-Mar-03 07:32 340 2 gusting 7 15.6
2015-Mar-03 07:17 355 2 gusting 9 15.6
2015-Mar-03 07:02 275 2 gusting 15 15.6
2015-Mar-03 06:47 355 4 gusting 17 15.6
2015-Mar-03 06:32
2015-Mar-03 06:17
2015-Mar-03 06:02
2015-Mar-03 05:47
2015-Mar-03 05:32
2015-Mar-03 05:17 355 3 gusting 9 16.1
2015-Mar-03 04:47 341 3 gusting 7 16.1
2015-Mar-03 04:32 038 16.1
2015-Mar-03 04:17 027 2 gusting 7 16.1
2015-Mar-03 04:02 024 5 gusting 12 16.7
2015-Mar-03 03:47 355 5 gusting 14 16.7
2015-Mar-03 03:32 336 2 gusting 10 16.7
2015-Mar-03 03:17 323 1 gusting 11 16.7
2015-Mar-03 03:02 338 4 gusting 14 16.7
2015-Mar-03 02:47 342 6 gusting 15 16.7
2015-Mar-03 02:32 024 6 gusting 13 16.7
2015-Mar-03 02:17 335 5 gusting 12 16.1
2015-Mar-03 02:02 336 5 gusting 13 16.7
2015-Mar-03 01:47 012 6 gusting 12 16.1
2015-Mar-03 01:32 013 6 gusting 12 16.1
2015-Mar-03 01:17 049 2 gusting 9 16.1
2015-Mar-03 01:04 042 3 gusting 13 16.1
2015-Mar-03 00:47 052 3 gusting 10 15.6
2015-Mar-03 00:32 059 7 gusting 13 15.6
2015-Mar-03 00:16 061 6 gusting 11 15.6
2015-Mar-03 00:01 059 5 gusting 10 15.6
2015-Mar-02 23:46 048 5 gusting 10 16.1
2015-Mar-02 23:31 060 4 gusting 15 16.1
2015-Mar-02 23:16 034 3 gusting 10 16.1
2015-Mar-02 23:01 028 3 gusting 9 16.1
2015-Mar-02 22:46 034 3 gusting 6 16.1
2015-Mar-02 22:31 034 2 gusting 6 16.1
2015-Mar-02 22:16 035 16.1
2015-Mar-02 22:01 037 15.6
2015-Mar-02 21:46 057 0 gusting 5 14.4
2015-Mar-02 21:31 057 14.4
2015-Mar-02 21:16 057 1 gusting 3 13.9
2015-Mar-02 21:01 057 2 gusting 5 13.9
2015-Mar-02 20:46 057 0 gusting 4 13.9
2015-Mar-02 20:31 057 3 gusting 6 13.9
2015-Mar-02 20:16 063 1 gusting 6 13.9
2015-Mar-02 20:02 063 2 gusting 6 13.3
2015-Mar-02 19:46 063 2 gusting 6 13.3
2015-Mar-02 19:31 063 13.3
2015-Mar-02 19:16 064 3 gusting 6 13.3
2015-Mar-02 19:01 065 4 gusting 6 13.3
2015-Mar-02 18:46 065 2 gusting 7 13.3
2015-Mar-02 18:31 064 2 gusting 8 13.9
2015-Mar-02 18:16 065 4 gusting 8 13.9
2015-Mar-02 18:01 066 4 gusting 9 13.9
2015-Mar-02 17:46 066 4 gusting 10 13.9
2015-Mar-02 17:31 065 6 gusting 11 13.9
2015-Mar-02 17:16 065 7 gusting 13 13.9
2015-Mar-02 17:01 065 7 gusting 13 13.9
2015-Mar-02 16:46 070 5 gusting 9 13.9
2015-Mar-02 16:31 075 2 gusting 10 13.9
2015-Mar-02 16:16 079 6 gusting 10 13.9
2015-Mar-02 16:01 073 5 gusting 9 13.9
2015-Mar-02 15:46 061 5 gusting 9 14.4
2015-Mar-02 15:31 047 3 gusting 9 14.4
2015-Mar-02 15:16 048 4 gusting 9 14.4
2015-Mar-02 15:01 039 14.4
2015-Mar-02 14:46 030 6 gusting 13 15.0
2015-Mar-02 14:31 360 3 gusting 11 15.0
2015-Mar-02 14:16 032 4 gusting 13 14.4
2015-Mar-02 14:01 343 6 gusting 14 15.0
2015-Mar-02 13:46 019 5 gusting 13 15.0
2015-Mar-02 13:31 030 8 gusting 11 15.0
2015-Mar-02 13:16 025 6 gusting 12 15.0
2015-Mar-02 13:01 026 6 gusting 13 15.6
2015-Mar-02 12:46 005 2 gusting 9 15.0
2015-Mar-02 12:31 360 7 gusting 13 15.0
2015-Mar-02 12:16 030 6 gusting 15 15.0
2015-Mar-02 12:01 038 10 gusting 17 15.0
2015-Mar-02 11:46 024 4 gusting 13 15.0
2015-Mar-02 11:31 033 7 gusting 13 15.0
2015-Mar-02 11:16 038 6 gusting 10 15.0
2015-Mar-02 11:01 038 6 gusting 10 15.0